Regional Weather Roundup
Issued by NWS

Home | Current Version | Previous Version | Text Only | Print | Product List | Glossary Off
Versions: 1 2 3 4 5 6 7 8 9 10 11 12 13 14 15 16 17 18 19 20 21 22 23 24 25 26 27 28 29 30 31 32 33 34 35 36 37 38 39 40 41 42 43 44 45 46 47 48 49 50

000
ASUS43 KDTX 030001
RWRMI
MICHIGAN HOURLY REGIONAL WEATHER ROUNDUP
NATIONAL WEATHER SERVICE DETROIT/PONTIAC MI
700 PM EST MON MAR 02 2015

NOTE: "FAIR" INDICATES FEW OR NO CLOUDS BELOW 12,000 FEET WITH NO
SIGNIFICANT WEATHER AND/OR OBSTRUCTION TO VISIBILITY.

MIZ047>049-052>055-059>063-066>070-074>076-081>083-030100-
SOUTHEAST LOWER MICHIGAN

CITY           SKY/WX    TMP DP  RH WIND       PRES   REMARKS
ADRIAN         PTCLDY    24  13  62 W5        30.42S WCI  18
6HR MIN TEMP:  23; 6HR MAX TEMP:  30;

ALMA           CLEAR     25  11  56 CALM      30.38F
ANN ARBOR      CLEAR     25  11  55 W3        30.40S
BAD AXE        CLEAR     18  11  71 SW5       30.39F WCI  11
CARO           CLEAR     16   8  68 CALM      30.39S
DETROIT CITY   CLEAR     30   9  41 W5        30.42R WCI  25
6HR MIN TEMP:  30; 6HR MAX TEMP:  34;

DETROIT        MOCLDY    29  11  47 CALM      30.42S
6HR MIN TEMP:  29; 6HR MAX TEMP:  33;

FLINT          CLEAR     25  11  55 W5        30.41R WCI  19
6HR MIN TEMP:  25; 6HR MAX TEMP:  30;

GROSSE ILE     PTCLDY    25  12  58 S5        30.41R WCI  19
HILLSDALE      PTCLDY    24  11  57 CALM      30.38F
HOWELL         PTCLDY    25  11  57 CALM      30.39S
6HR MIN TEMP:  25; 6HR MAX TEMP:  29;


CITY           SKY/WX    TMP DP  RH WIND       PRES   REMARKS
JACKSON        PTCLDY    25  13  60 S5        30.38F WCI  19
6HR MIN TEMP:  25; 6HR MAX TEMP:  30;

LAMBERTVILLE   PTCLDY    28  14  54 CALM      30.43S
LANSING        PTCLDY    24  13  62 W5        30.40S WCI  18
6HR MIN TEMP:  24; 6HR MAX TEMP:  30;

LAPEER         FAIR      24  10  53 CALM      30.40S
MASON          PTCLDY    26  13  58 NW3       30.39S
6HR MIN TEMP:  26; 6HR MAX TEMP:  30;

MONROE         PTCLDY    21  12  68 SW3       30.41S
MT. CLEMENS    PTCLDY    25  10  52 NE3       30.39S
6HR MIN TEMP:  25; 6HR MAX TEMP:  31;

PONTIAC        PTCLDY    26  11  52 SW3       30.38S
6HR MIN TEMP:  25; 6HR MAX TEMP:  29;

PORT HOPE        N/A     23   7  50 SW5       30.38S WCI  17
6HR MIN TEMP:  23; 6HR MAX TEMP:  27;

PORT HURON     CLEAR     23   9  54 CALM      30.42S
TRI CITIES     CLEAR     25  10  53 SW6       30.39F WCI  18
6HR MIN TEMP:  25; 6HR MAX TEMP:  29;

TROY           CLEAR     29  10  45 W3        30.43R
SAGINAW HB     CLEAR     27  14  59 SW5       30.39F WCI  21
$$
MIZ043>046-050>051-056>058-064>065-071>073-077>080-030100-
SOUTHWEST LOWER MICHIGAN

CITY           SKY/WX    TMP DP  RH WIND       PRES   REMARKS
BATTLE CREEK   PTCLDY    26  12  55 CALM      30.38F
6HR MIN TEMP:  25; 6HR MAX TEMP:  31;

BENTON HARBOR  MOCLDY    23  16  74 CALM      30.41F
6HR MIN TEMP:  22; 6HR MAX TEMP:  27;

BIG RAPIDS     CLEAR     25   9  51 W5        30.34F WCI  19
6HR MIN TEMP:  25; 6HR MAX TEMP:  31;

COLDWATER      PTCLDY    22  13  66 CALM      30.38F
6HR MIN TEMP:  22; 6HR MAX TEMP:  29;

FREMONT        FAIR      22   8  56 CALM      30.37F
HOLLAND        PTCLDY    22  13  68 SW6       30.41F WCI  14
6HR MIN TEMP:  22; 6HR MAX TEMP:  29;

GRAND RAPIDS   MOCLDY    23  12  62 W7        30.39F WCI  15
6HR MIN TEMP:  23; 6HR MAX TEMP:  29;

IONIA          FAIR      25  14  63 SW3       30.37F
KALAMAZOO        N/A     25  13  60 SW5       30.39F WCI  19
6HR MIN TEMP:  25; 6HR MAX TEMP:  30;

LUDINGTON      CLEAR     19  10  69 S3        30.38F
6HR MIN TEMP:  19; 6HR MAX TEMP:  26;

MARSHALL       PTCLDY    24  13  61 SW3       30.37F
MOUNT PLEASANT CLEAR     26   9  48 S5        30.36F WCI  21
MUSKEGON       MOCLDY    22  12  65 SW3       30.41F
6HR MIN TEMP:  22; 6HR MAX TEMP:  28;

SOUTH HAVEN    PTCLDY    24  16  71 CALM      30.40F
$$
MIZ016>042-030100-
NORTHERN LOWER MICHIGAN

CITY           SKY/WX    TMP DP  RH WIND       PRES   REMARKS
ALPENA         CLEAR     23   2  40 CALM      30.37S
6HR MIN TEMP:  23; 6HR MAX TEMP:  29;

BEAVER ISLAND  CLEAR     19   7  59 SW6       30.35F WCI  11
6HR MIN TEMP:  19; 6HR MAX TEMP:  23;

BELLAIRE       CLEAR     17   6  62 CALM      30.38F
6HR MIN TEMP:  17; 6HR MAX TEMP:  25;

CADILLAC       CLEAR     17   2  54 CALM      30.30F
CHARLEVOIX     CLEAR     18   7  62 CALM      30.40F
FRANKFORT      CLEAR     20  11  69 CALM      30.37F
GAYLORD        CLEAR     13   0  56 CALM      30.31F
6HR MIN TEMP:  13; 6HR MAX TEMP:  22;

GRAYLING       CLEAR     15   2  56 CALM      30.33F
6HR MIN TEMP:  15; 6HR MAX TEMP:  26;

HARBOR SPRINGS CLEAR     15   5  66 CALM      30.37F
HOUGHTON LAKE  CLEAR     19   2  47 W3        30.33F
6HR MIN TEMP:  19; 6HR MAX TEMP:  26;

MANISTEE       CLEAR     19   9  63 CALM      30.37F
OSCODA         CLEAR     22   2  40 CALM      30.37S
PELLSTON       CLEAR     18   5  57 SW3       30.36F
6HR MIN TEMP:  18; 6HR MAX TEMP:  23;

ROGERS CITY    CLEAR     20   8  57 W6        30.37F WCI  13
TRAVERSE CITY  PTCLDY    17   7  64 CALM      30.36F
6HR MIN TEMP:  17; 6HR MAX TEMP:  26;

$$
MIZ007>008-015-030100-
EASTERN UPPER MICHIGAN

CITY           SKY/WX    TMP DP  RH WIND       PRES   REMARKS
KINROSS        CLEAR     12   7  79 W3        30.34S
6HR MIN TEMP:  12; 6HR MAX TEMP:  23;

MACKINAC ISLAN CLEAR     17   7  65 SW10G17   30.34F WCI   5
6HR MIN TEMP:  17; 6HR MAX TEMP:  22;

NEWBERRY       CLEAR     14   0  55 CALM      30.31S
6HR MIN TEMP:  14; 6HR MAX TEMP:  22;

S. S. MARIE    CLEAR     13   4  67 NW5       30.33F WCI   5
6HR MIN TEMP:  13; 6HR MAX TEMP:  20;

MUNISING         N/A     15   5  64 CALM      30.30F
6HR MIN TEMP:  15; 6HR MAX TEMP:  24;

$$
MIZ004>006-011>014-085-030100-
CENTRAL UPPER MICHIGAN

CITY           SKY/WX    TMP DP  RH WIND       PRES   REMARKS
MANISTIQUE     CLEAR     22  13  67 SW7       30.31F WCI  14
6HR MIN TEMP:  22; 6HR MAX TEMP:  27;

ESCANABA       CLEAR     21  10  63 S12       30.32F WCI   9
6HR MIN TEMP:  21; 6HR MAX TEMP:  28;

MENOMINEE      CLEAR     23   7  50 S7        30.32S WCI  15
6HR MIN TEMP:  23; 6HR MAX TEMP:  27;

SAWYER-GWINN   CLEAR     19   9  63 NE5       30.24F WCI  13
$$
MIZ001>003-009>011-084-030100-
WESTERN UPPER MICHIGAN

CITY           SKY/WX    TMP DP  RH WIND       PRES   REMARKS
HOUGHTON       CLEAR     15   5  64 CALM      30.20F
6HR MIN TEMP:  15; 6HR MAX TEMP:  22;

COPPER HARBOR    N/A     16   9  74 CALM      30.24F
6HR MIN TEMP:  16; 6HR MAX TEMP:  22;

IRONWOOD       CLEAR     25   0  33 S6        30.16F WCI  18
6HR MIN TEMP:  21; 6HR MAX TEMP:  28;

$$

ABBREVIATIONS USED IN REMARKS
   TC - TEMPERATURE IN CELSIUS
  WCI - WIND CHILL INDEX
   HX - HEAT INDEX
  VSB - VISIBILITY




USA.gov is the U.S. government's official web portal to all federal, state and local government web resources and services.